When you browse on this site, cookies collect data to enhance your experience and personalize the content and advertising you see.
Visit our Privacy Policy to learn more. By continuing to use the site, you agree to this use of cookies and data.
  • Em Portugal
  • Lista de países
  • Para 7 dias
  • Temperatura da água
  • Mapas de satélite
  • Mapa do tempo
  • Widgets de tempo
  • user-avatar
    Iniciar Sessão

    Previsão horária em Wien

    Hoje, 22 Julho, Segunda-feira

    Tempo Temperatura Precipitação Vento Pressão Humidade
    00:00 +21°C° 0 mm 3 m/s 749 mmHg 77%
    01:00 +20°C° 0 mm 2 m/s 749 mmHg 79%
    02:00 +20°C° 0 mm 2 m/s 749 mmHg 80%
    03:00 +20°C° 0 mm 2 m/s 749 mmHg 80%
    04:00 +20°C° 0 mm 2 m/s 748 mmHg 81%
    05:00 +21°C° 0 mm 2 m/s 749 mmHg 77%
    06:00 +23°C° 0 mm 2 m/s 749 mmHg 72%
    07:00 +24°C° 0 mm 1 m/s 749 mmHg 67%
    08:00 +25°C° 0 mm 1 m/s 749 mmHg 60%
    09:00 +27°C° 0 mm 1 m/s 749 mmHg 53%
    10:00 +29°C° 0 mm 1 m/s 749 mmHg 45%
    11:00 +29°C° 0 mm 2 m/s 749 mmHg 43%
    12:00 +30°C° 0 mm 2 m/s 749 mmHg 40%
    13:00 +31°C° 0 mm 2 m/s 749 mmHg 37%
    14:00 +31°C° 0 mm 3 m/s 749 mmHg 37%
    15:00 +31°C° 0 mm 3 m/s 748 mmHg 37%
    16:00 +31°C° 0 mm 3 m/s 748 mmHg 37%
    17:00 +30°C° 0 mm 2 m/s 748 mmHg 42%
    18:00 +29°C° 0 mm 2 m/s 748 mmHg 46%
    19:00 +27°C° 0 mm 1 m/s 748 mmHg 51%
    20:00 +26°C° 0 mm 1 m/s 748 mmHg 54%
    21:00 +25°C° 0 mm 1 m/s 748 mmHg 57%
    22:00 +24°C° 0 mm 1 m/s 749 mmHg 60%
    23:00 +24°C° 0 mm 1 m/s 748 mmHg 61%

    Amanhã, 23 Julho, Terça-feira

    Tempo Temperatura Precipitação Vento Pressão Humidade
    00:00 +24°C° 0 mm 1 m/s 748 mmHg 62%
    01:00 +24°C° 0 mm 1 m/s 748 mmHg 62%
    02:00 +24°C° 0 mm 1 m/s 748 mmHg 64%
    03:00 +23°C° 0 mm 1 m/s 748 mmHg 67%
    04:00 +23°C° 0 mm 2 m/s 748 mmHg 69%
    05:00 +23°C° 0 mm 2 m/s 748 mmHg 65%
    06:00 +24°C° 0 mm 3 m/s 748 mmHg 61%
    07:00 +25°C° 0 mm 3 m/s 748 mmHg 57%
    08:00 +26°C° 0 mm 4 m/s 748 mmHg 52%
    09:00 +27°C° 0 mm 4 m/s 748 mmHg 47%
    10:00 +29°C° 0 mm 4 m/s 748 mmHg 42%
    11:00 +29°C° 0 mm 4 m/s 747 mmHg 41%
    12:00 +30°C° 0 mm 4 m/s 747 mmHg 40%
    13:00 +32°C° 0 mm 4 m/s 747 mmHg 39%
    14:00 +32°C° 0 mm 4 m/s 746 mmHg 39%
    15:00 +33°C° 0 mm 4 m/s 746 mmHg 39%
    16:00 +33°C° 0 mm 4 m/s 746 mmHg 39%
    17:00 +30°C° 0 mm 4 m/s 746 mmHg 44%
    18:00 +29°C° 0 mm 3 m/s 746 mmHg 49%
    19:00 +28°C° 0 mm 2 m/s 745 mmHg 54%
    20:00 +27°C° 0 mm 2 m/s 746 mmHg 57%
    21:00 +26°C° 0 mm 2 m/s 746 mmHg 60%
    22:00 +24°C° 0 mm 1 m/s 746 mmHg 63%
    23:00 +24°C° 0 mm 1 m/s 746 mmHg 66%

    Depois de amanhã, 24 Julho, Quarta-feira

    Tempo Temperatura Precipitação Vento Pressão Humidade
    00:00 +23°C° 0 mm 1 m/s 746 mmHg 69%
    01:00 +22°C° 0 mm 1 m/s 746 mmHg 72%
    02:00 +22°C° 0 mm 1 m/s 746 mmHg 75%
    03:00 +21°C° 0 mm 1 m/s 745 mmHg 77%
    04:00 +21°C° 0 mm 1 m/s 745 mmHg 79%
    05:00 +22°C° 0 mm 1 m/s 745 mmHg 75%
    06:00 +23°C° 0 mm 1 m/s 745 mmHg 71%
    07:00 +25°C° 0 mm 1 m/s 745 mmHg 67%
    08:00 +26°C° 0 mm 2 m/s 745 mmHg 60%
    09:00 +28°C° 0 mm 2 m/s 745 mmHg 54%
    10:00 +29°C° 0 mm 2 m/s 745 mmHg 48%
    11:00 +30°C° 0 mm 2 m/s 745 mmHg 44%
    12:00 +31°C° 0 mm 3 m/s 745 mmHg 41%
    13:00 +33°C° 0 mm 3 m/s 745 mmHg 38%
    14:00 +34°C° 0 mm 3 m/s 745 mmHg 38%
    15:00 +34°C° 0 mm 3 m/s 744 mmHg 37%
    16:00 +34°C° 0 mm 3 m/s 744 mmHg 37%
    17:00 +33°C° 0 mm 3 m/s 744 mmHg 42%
    18:00 +30°C° 0 mm 3 m/s 744 mmHg 47%
    19:00 +29°C° 0 mm 2 m/s 744 mmHg 53%
    20:00 +27°C° 0 mm 2 m/s 745 mmHg 58%
    21:00 +26°C° 0 mm 2 m/s 745 mmHg 64%
    22:00 +24°C° 0 mm 2 m/s 745 mmHg 69%
    23:00 +23°C° 0 mm 2 m/s 745 mmHg 70%

    25 Julho, Quinta-feira

    Tempo Temperatura Precipitação Vento Pressão Humidade
    00:00 +23°C° 0 mm 1 m/s 745 mmHg 71%
    01:00 +22°C° 0 mm 1 m/s 745 mmHg 72%
    02:00 +22°C° 0 mm 1 m/s 745 mmHg 74%
    03:00 +21°C° 0 mm 1 m/s 745 mmHg 77%
    04:00 +21°C° 0 mm 1 m/s 745 mmHg 79%
    05:00 +22°C° 0 mm 1 m/s 746 mmHg 76%
    06:00 +23°C° 0 mm 1 m/s 746 mmHg 72%
    07:00 +24°C° 0 mm 1 m/s 746 mmHg 68%
    08:00 +25°C° 0 mm 1 m/s 746 mmHg 62%
    09:00 +27°C° 0 mm 1 m/s 746 mmHg 55%
    10:00 +29°C° 0 mm 1 m/s 746 mmHg 49%
    11:00 +30°C° 0 mm 1 m/s 746 mmHg 45%
    12:00 +31°C° 0 mm 2 m/s 746 mmHg 41%
    13:00 +32°C° 0 mm 2 m/s 745 mmHg 38%
    14:00 +32°C° 0 mm 2 m/s 745 mmHg 37%
    15:00 +34°C° 0 mm 2 m/s 745 mmHg 37%
    16:00 +34°C° 0 mm 3 m/s 744 mmHg 36%
    17:00 +31°C° 0 mm 3 m/s 744 mmHg 42%
    18:00 +30°C° 0 mm 3 m/s 744 mmHg 48%
    19:00 +28°C° 0 mm 3 m/s 744 mmHg 54%
    20:00 +27°C° 0 mm 2 m/s 744 mmHg 57%
    21:00 +26°C° 0 mm 2 m/s 745 mmHg 60%
    22:00 +25°C° 0 mm 1 m/s 745 mmHg 63%
    23:00 +24°C° 0 mm 1 m/s 745 mmHg 65%

    26 Julho, Sexta-feira

    Tempo Temperatura Precipitação Vento Pressão Humidade
    00:00 +24°C° 0 mm 1 m/s 745 mmHg 67%
    01:00 +23°C° 0 mm 1 m/s 744 mmHg 69%
    02:00 +23°C° 0 mm 1 m/s 744 mmHg 72%
    03:00 +22°C° 0 mm 1 m/s 744 mmHg 74%
    04:00 +22°C° 0 mm 1 m/s 744 mmHg 76%
    05:00 +23°C° 0 mm 1 m/s 744 mmHg 72%
    06:00 +24°C° 0 mm 1 m/s 744 mmHg 68%
    07:00 +25°C° 0 mm 2 m/s 744 mmHg 64%
    08:00 +27°C° 0 mm 2 m/s 744 mmHg 59%
    09:00 +28°C° 0 mm 3 m/s 744 mmHg 53%
    10:00 +30°C° 0 mm 3 m/s 744 mmHg 48%
    11:00 +31°C° 0 mm 3 m/s 744 mmHg 45%
    12:00 +33°C° 0 mm 3 m/s 743 mmHg 41%
    13:00 +34°C° 0 mm 3 m/s 743 mmHg 38%
    14:00 +34°C° 0 mm 3 m/s 743 mmHg 37%
    15:00 +34°C° 0 mm 3 m/s 742 mmHg 35%
    16:00 +35°C° 0 mm 3 m/s 742 mmHg 34%
    17:00 +33°C° 0 mm 3 m/s 742 mmHg 39%
    18:00 +32°C° 0 mm 4 m/s 742 mmHg 44%
    19:00 +29°C° 0 mm 4 m/s 742 mmHg 48%
    20:00 +28°C° 0 mm 4 m/s 742 mmHg 51%
    21:00 +27°C° 0 mm 3 m/s 742 mmHg 54%
    22:00 +26°C° 0 mm 3 m/s 742 mmHg 57%
    23:00 +25°C° 0 mm 3 m/s 742 mmHg 59%

    27 Julho, Sábado

    Tempo Temperatura Precipitação Vento Pressão Humidade
    00:00 +25°C° 0 mm 2 m/s 742 mmHg 61%
    01:00 +25°C° 0 mm 2 m/s 742 mmHg 63%
    02:00 +24°C° 0 mm 2 m/s 742 mmHg 65%
    03:00 +23°C° 0 mm 2 m/s 742 mmHg 68%
    04:00 +23°C° 0 mm 2 m/s 741 mmHg 71%
    05:00 +23°C° 0 mm 2 m/s 741 mmHg 67%
    06:00 +24°C° 0 mm 2 m/s 742 mmHg 64%
    07:00 +25°C° 0 mm 2 m/s 742 mmHg 61%
    08:00 +27°C° 0 mm 2 m/s 742 mmHg 55%
    09:00 +29°C° 0 mm 3 m/s 742 mmHg 49%
    10:00 +30°C° 0 mm 3 m/s 742 mmHg 44%
    11:00 +31°C° 0 mm 3 m/s 742 mmHg 42%
    12:00 +33°C° 0 mm 3 m/s 741 mmHg 40%
    13:00 +33°C° 0 mm 4 m/s 741 mmHg 38%
    14:00 +33°C° 0 mm 3 m/s 741 mmHg 38%
    15:00 +33°C° 0 mm 3 m/s 741 mmHg 38%
    16:00 +33°C° 0 mm 3 m/s 740 mmHg 38%
    17:00 +31°C° 0 mm 3 m/s 740 mmHg 41%
    18:00 +30°C° 0 mm 3 m/s 740 mmHg 44%
    19:00 +29°C° 0 mm 2 m/s 740 mmHg 48%
    20:00 +28°C° 0 mm 2 m/s 741 mmHg 51%
    21:00 +27°C° 0 mm 2 m/s 741 mmHg 54%
    22:00 +26°C° 0 mm 2 m/s 741 mmHg 56%
    23:00 +26°C° 0 mm 2 m/s 741 mmHg 58%
    Mostrar mais